EW5657 Weather Reports


time (UTC)temp
F
wind
direction
speed
knots
gust
knots
rain 1hr
in
rain 24hr
in
rain mn
in
humidity
%
barometer
mb
20260906214335 53 238 0.9 4.3 0.00 0.01 0.01 91 1026.1
20260906213333 52 285 0.9 7.0 0.00 0.01 0.01 91 1026.0
20260906212834 52 238 0.9 6.1 0.00 0.01 0.01 91 1025.9
20260906212333 52 266 0.9 3.5 0.00 0.01 0.01 91 1025.9
20260906211835 52 253 0.9 3.5 0.00 0.01 0.01 91 1025.9
20260906211340 52 269 0.9 7.8 0.00 0.01 0.01 91 1025.7
20260906211335 52 256 0.9 7.8 0.00 0.01 0.01 91 1025.8
20260906210336 52 245 0.9 3.5 0.00 0.01 0.01 91 1025.6
20260906205833 52 227 0.9 5.2 0.00 0.01 0.01 91 1025.6
20260906205334 52 259 0.9 7.0 0.00 0.01 0.01 91 1025.5
20260906204839 52 325 0.0 9.6 0.00 0.01 0.01 91 1025.3
20260906204834 52 203 0.9 7.0 0.00 0.01 0.01 91 1025.4
20260906203833 52 325 0.9 9.6 0.00 0.01 0.01 91 1025.2
20260906203340 52 251 0.9 4.3 0.00 0.01 0.01 91 1025.0
20260906203333 52 249 0.0 7.8 0.00 0.01 0.01 91 1025.1
20260906202833 52 241 0.9 2.6 0.00 0.01 0.01 91 1025.1
20260906201834 52 244 0.9 4.3 0.00 0.01 0.01 91 1025.0
20260906201335 53 260 0.0 2.6 0.00 0.01 0.01 91 1025.0
20260906200838 53 282 0.9 5.2 0.00 0.01 0.01 91 1024.9
20260906200832 53 259 0.9 5.2 0.00 0.01 0.01 91 1025.0
20260906195831 53 276 0.0 5.2 0.00 0.01 0.01 91 1024.8
20260906195331 53 239 0.0 1.7 0.01 0.01 0.01 91 1024.7
20260906194833 53 238 0.0 3.5 0.01 0.01 0.01 90 1024.7
20260906194341 53 247 0.9 7.8 0.01 0.01 0.01 90 1024.8
20260906194334 53 237 0.0 3.5 0.01 0.01 0.01 90 1024.7
20260906193335 53 241 0.0 3.5 0.01 0.01 0.01 90 1024.8
20260906193331 53 249 0.9 7.8 0.01 0.01 0.01 90 1024.8
20260906192329 53 245 0.0 3.5 0.01 0.01 0.01 90 1024.6
20260906191829 53 203 0.0 5.2 0.01 0.01 0.01 89 1024.7
20260906191329 54 335 0.0 5.2 0.01 0.01 0.01 89 1024.6
20260906190829 54 212 0.0 5.2 0.01 0.01 0.01 89 1024.7
20260906190329 54 213 0.9 5.2 0.01 0.01 0.01 89 1024.6
20260906185829 54 235 0.9 8.7 0.01 0.01 0.01 88 1024.6
20260906185328 54 193 1.7 8.7 0.00 0.00 0.00 88 1024.6
20260906184828 54 229 0.9 7.8 0.00 0.00 0.00 87 1024.5
20260906184327 54 212 0.9 5.2 0.00 0.00 0.00 86 1024.4
20260906183826 54 215 0.9 4.3 0.00 0.00 0.00 86 1024.4
20260906183326 54 212 0.9 4.3 0.00 0.00 0.00 86 1024.3
20260906182825 54 272 0.0 4.3 0.00 0.00 0.00 85 1024.2
20260906182325 55 231 0.0 4.3 0.00 0.00 0.00 85 1024.0
20260906181824 55 206 0.0 2.6 0.00 0.00 0.00 84 1024.3
20260906181326 55 218 0.0 1.7 0.00 0.00 0.00 84 1024.2
20260906180827 55 221 0.0 0.9 0.00 0.00 0.00 83 1024.2
20260906180325 55 222 0.0 0.9 0.00 0.00 0.00 83 1024.0
20260906175825 55 219 0.0 2.6 0.00 0.00 0.00 83 1024.0
20260906175326 55 218 0.0 2.6 0.00 0.00 0.00 83 1024.0
20260906174829 55 228 0.0 7.0 0.00 0.00 0.00 83 1024.0
20260906174823 55 227 0.0 1.7 0.00 0.00 0.00 83 1023.9
20260906173823 55 225 0.9 7.0 0.00 0.00 0.00 82 1024.0
20260906173323 55 226 0.0 5.2 0.00 0.00 0.00 82 1023.9
20260906172829 55 251 0.0 0.9 0.00 0.00 0.00 82 1023.8
20260906172824 55 251 0.0 0.9 0.00 0.00 0.00 82 1023.8
20260906171823 55 251 0.0 1.7 0.00 0.00 0.00 82 1023.9
20260906171322 55 253 0.0 1.7 0.00 0.00 0.00 82 1023.9
20260906170823 55 252 0.0 2.6 0.00 0.00 0.00 82 1023.9
20260906170321 55 253 0.0 3.5 0.00 0.00 0.00 82 1024.1
20260906165821 55 243 0.0 3.5 0.00 0.00 0.00 82 1024.1
20260906165323 55 261 0.0 3.5 0.00 0.00 0.00 82 1024.1
20260906164824 55 269 0.0 0.9 0.00 0.00 0.00 82 1024.1
20260906164321 56 269 0.0 0.9 0.00 0.00 0.00 82 1024.0
20260906163820 56 269 0.0 0.0 0.00 0.00 0.00 82 1024.1
20260906163322 56 269 0.0 0.9 0.00 0.00 0.00 82 1024.1
20260906162820 56 269 0.0 0.9 0.00 0.00 0.00 82 1024.1
20260906162323 56 237 0.0 1.7 0.00 0.00 0.00 82 1024.1
20260906161825 56 237 0.0 1.7 0.00 0.00 0.00 82 1024.2
20260906161320 56 237 0.0 1.7 0.00 0.00 0.00 82 1024.2
20260906160822 56 250 0.0 0.0 0.00 0.00 0.00 82 1024.2
20260906160324 56 250 0.0 0.0 0.00 0.00 0.00 82 1024.3
20260906160318 56 250 0.0 0.0 0.00 0.00 0.00 82 1024.2
20260906155943 56 250 0.0 0.0 0.00 0.00 0.00 82 1024.3
20260906154818 56 250 0.0 0.0 0.00 0.00 0.00 82 1024.3
20260906154320 56 250 0.0 0.0 0.00 0.00 0.00 82 1024.3
20260906153816 56 249 0.0 0.0 0.00 0.00 0.00 81 1024.3
20260906153325 56 251 0.0 1.7 0.00 0.00 0.00 81 1024.3
20260906153319 56 249 0.0 0.9 0.00 0.00 0.00 81 1024.3
20260906152818 56 250 0.0 1.7 0.00 0.00 0.00 81 1024.3
20260906152319 56 251 0.0 1.7 0.00 0.00 0.00 81 1024.3
20260906151812 56 252 0.0 0.9 0.00 0.00 0.00 81 1024.4
20260906151314 56 247 0.0 2.6 0.00 0.00 0.00 81 1024.4
20260906150814 56 249 0.0 2.6 0.00 0.00 0.00 81 1024.3
20260906150318 57 239 0.0 0.9 0.00 0.00 0.00 80 1024.3
20260906150313 57 229 0.0 2.6 0.00 0.00 0.00 81 1024.3
20260906145310 56 240 0.0 0.9 0.00 0.00 0.00 80 1024.3
20260906144812 56 240 0.0 0.0 0.00 0.00 0.00 80 1024.1
20260906144319 57 240 0.0 0.0 0.00 0.00 0.00 79 1024.1
20260906144311 56 240 0.0 0.0 0.00 0.00 0.00 79 1024.1
20260906143310 57 240 0.0 0.0 0.00 0.00 0.00 79 1024.0
20260906142809 57 240 0.0 0.0 0.00 0.00 0.00 79 1024.1
20260906142308 57 241 0.0 0.9 0.00 0.00 0.00 79 1024.2
20260906141811 57 241 0.0 3.5 0.00 0.00 0.00 79 1024.2
20260906141805 57 240 0.0 3.5 0.00 0.00 0.00 78 1024.1
20260906140807 56 269 0.0 1.7 0.00 0.00 0.00 77 1024.0
20260906140304 57 273 0.0 0.9 0.00 0.00 0.00 78 1024.0
20260906135803 57 272 0.0 5.2 0.00 0.00 0.00 78 1023.9
20260906135305 56 272 0.0 5.2 0.00 0.00 0.00 77 1023.9
20260906134803 56 276 0.0 0.0 0.00 0.00 0.00 77 1023.9
20260906134301 57 276 0.0 0.0 0.00 0.00 0.00 78 1024.0
20260906133800 57 278 0.0 0.0 0.00 0.00 0.00 78 1024.1
20260906133259 57 278 0.0 0.0 0.00 0.00 0.00 78 1024.2
20260906132800 57 278 0.0 0.9 0.00 0.00 0.00 78 1024.3
20260906132306 57 278 0.0 0.9 0.00 0.00 0.00 79 1024.2
20260906131805 57 278 0.0 0.0 0.00 0.00 0.00 79 1024.2
20260906131800 57 278 0.0 0.0 0.00 0.00 0.00 79 1024.3
20260906130801 57 278 0.0 3.5 0.00 0.00 0.00 79 1024.3
20260906130302 57 278 0.0 3.5 0.00 0.00 0.00 79 1024.3
20260906125800 57 272 0.0 0.9 0.00 0.00 0.00 80 1024.4
20260906125300 57 272 0.0 0.9 0.00 0.00 0.00 80 1024.3
20260906124800 57 271 0.0 0.0 0.00 0.00 0.00 80 1024.3
20260906124258 57 271 0.0 0.0 0.00 0.00 0.00 80 1024.4
20260906123757 57 271 0.0 0.0 0.00 0.00 0.00 81 1024.4
20260906123258 57 271 0.0 0.0 0.00 0.00 0.00 81 1024.3
20260906122759 57 271 0.0 0.0 0.00 0.00 0.00 81 1024.3
20260906122259 57 271 0.0 0.9 0.00 0.00 0.00 81 1024.3
20260906121757 57 271 0.0 0.9 0.00 0.00 0.00 81 1024.4
20260906121256 57 271 0.0 0.9 0.00 0.00 0.00 81 1024.4
20260906120756 57 271 0.0 0.9 0.00 0.00 0.00 82 1024.5
20260906120255 57 271 0.0 0.9 0.00 0.00 0.00 82 1024.4
20260906115755 57 270 0.0 0.0 0.00 0.00 0.00 82 1024.5
20260906115258 57 270 0.0 0.0 0.00 0.00 0.00 82 1024.4
20260906114802 57 270 0.0 0.0 0.00 0.00 0.00 82 1024.4
20260906114756 57 270 0.0 0.0 0.00 0.00 0.00 82 1024.4
20260906113755 57 270 0.0 0.0 0.00 0.00 0.00 82 1024.3
20260906113255 57 270 0.0 0.0 0.00 0.00 0.00 81 1024.3
20260906112804 57 270 0.0 0.0 0.00 0.00 0.00 81 1024.4
20260906112756 57 270 0.0 0.0 0.00 0.00 0.00 81 1024.3
20260906111756 57 270 0.0 0.9 0.00 0.00 0.00 81 1024.3
20260906111253 57 272 0.0 0.9 0.00 0.00 0.00 81 1024.4
20260906110753 57 270 0.0 0.9 0.00 0.00 0.00 81 1024.4
20260906110252 58 270 0.0 2.6 0.00 0.00 0.00 81 1024.4
20260906105752 58 270 0.0 2.6 0.00 0.00 0.00 81 1024.4
20260906105253 58 229 0.0 4.3 0.00 0.00 0.00 81 1024.4
20260906104751 58 233 0.0 4.3 0.00 0.00 0.00 81 1024.3
20260906104252 58 250 0.0 2.6 0.00 0.00 0.00 82 1024.3
20260906103752 58 217 0.0 0.9 0.00 0.00 0.00 82 1024.3
20260906103249 58 216 0.0 0.9 0.00 0.00 0.00 82 1024.2
20260906102749 58 212 0.0 1.7 0.00 0.00 0.00 82 1024.0
20260906102254 58 212 0.0 1.7 0.00 0.00 0.00 81 1024.1
20260906102248 58 212 0.0 1.7 0.00 0.00 0.00 82 1024.0
20260906101246 58 212 0.0 1.7 0.00 0.00 0.00 81 1024.0
20260906100748 58 211 0.0 0.0 0.00 0.00 0.00 81 1024.0
20260906100253 58 211 0.0 0.0 0.00 0.00 0.00 81 1023.9
20260906100249 58 211 0.0 0.0 0.00 0.00 0.00 81 1024.0
20260906095247 58 211 0.0 0.0 0.00 0.00 0.00 81 1023.9
20260906094748 58 211 0.0 0.0 0.00 0.00 0.00 81 1023.8
20260906094253 58 210 0.0 0.0 0.00 0.00 0.00 82 1023.8
20260906094247 58 210 0.0 0.0 0.00 0.00 0.00 82 1023.9
20260906093255 59 210 0.0 0.0 0.00 0.00 0.00 81 1023.6
20260906093247 59 210 0.0 0.0 0.00 0.00 0.00 82 1023.8
20260906092749 59 210 0.0 0.0 0.00 0.00 0.00 81 1023.7
20260906092408 59 210 0.0 0.0 0.00 0.00 0.00 81 1023.6
20260906091247 59 210 0.0 0.0 0.00 0.00 0.00 80 1023.5
20260906090749 59 210 0.0 0.0 0.00 0.00 0.00 80 1023.5
20260906090248 59 210 0.0 0.9 0.00 0.00 0.00 79 1023.3
20260906085748 59 210 0.0 1.7 0.00 0.00 0.00 79 1023.3
20260906085247 59 210 0.0 1.7 0.00 0.00 0.00 79 1023.3
20260906084753 59 210 0.0 1.7 0.00 0.00 0.00 78 1023.3
20260906084748 59 210 0.0 1.7 0.00 0.00 0.00 78 1023.2
20260906083750 59 210 0.0 1.7 0.00 0.00 0.00 78 1023.1
20260906083253 59 210 0.0 0.9 0.00 0.00 0.00 78 1023.1
20260906083248 59 210 0.0 0.9 0.00 0.00 0.00 78 1023.2
20260906082248 59 210 0.0 0.9 0.00 0.00 0.00 78 1023.1
20260906081751 59 210 0.0 0.9 0.00 0.00 0.00 77 1023.1
20260906081745 59 210 0.0 0.9 0.00 0.00 0.00 77 1023.0
20260906080746 59 210 0.0 1.7 0.00 0.00 0.00 77 1023.0
20260906080247 59 210 0.0 1.7 0.00 0.00 0.00 76 1023.0
20260906075744 59 210 0.0 1.7 0.00 0.00 0.00 76 1022.8
20260906075243 59 210 0.0 1.7 0.00 0.00 0.00 76 1022.7
20260906074745 59 210 0.0 1.7 0.00 0.00 0.00 76 1022.6
20260906074245 60 210 0.0 2.6 0.00 0.00 0.00 75 1022.4
20260906073743 60 210 0.0 2.6 0.00 0.00 0.00 75 1022.4
20260906073241 60 210 0.0 3.5 0.00 0.01 0.00 75 1022.5
20260906072741 60 210 0.0 3.5 0.00 0.01 0.00 74 1022.4
20260906072341 60 210 0.0 2.6 0.00 0.01 0.00 75 1022.4
20260906072241 60 210 0.9 2.6 0.00 0.01 0.00 75 1022.5
20260906071516 60 210 0.0 2.6 0.00 0.01 0.00 75 1022.4
20260906070739 60 210 0.9 2.6 0.00 0.01 0.00 74 1022.3
20260906070240 60 212 0.9 2.6 0.00 0.01 0.00 75 1022.2
20260906065741 60 212 0.9 3.5 0.00 0.01 0.00 74 1022.2
20260906065240 60 212 0.9 3.5 0.00 0.02 0.00 74 1022.3
20260906064740 60 212 0.0 3.5 0.00 0.04 0.00 75 1022.2
20260906064237 60 214 0.0 2.6 0.00 0.06 0.00 75 1022.1
20260906063743 60 214 0.9 2.6 0.00 0.06 0.00 74 1022.1
20260906063737 60 214 0.9 2.6 0.00 0.06 0.00 75 1022.2
20260906063405 60 216 0.9 2.6 0.00 0.06 0.00 74 1022.1
20260906062237 60 216 0.9 2.6 0.00 0.06 0.00 74 1022.1
20260906061740 60 216 0.9 2.6 0.00 0.06 0.00 74 1022.1
20260906061239 60 218 0.9 2.6 0.00 0.06 0.00 74 1022.1
20260906060738 60 218 0.9 2.6 0.00 0.06 0.00 74 1022.0
20260906060238 60 220 0.9 3.5 0.00 0.06 0.00 75 1022.1
20260906055738 60 222 0.9 3.5 0.00 0.06 0.00 75 1022.1
20260906055235 60 205 0.9 3.5 0.00 0.06 0.00 75 1022.1
20260906054736 60 206 0.0 1.7 0.00 0.06 0.00 76 1022.0
20260906054234 60 206 0.9 2.6 0.00 0.06 0.00 77 1022.1
20260906053740 60 206 0.9 3.5 0.00 0.06 0.00 76 1022.0
20260906053736 60 206 0.9 2.6 0.00 0.06 0.00 76 1022.0
20260906052735 60 206 0.9 3.5 0.00 0.06 0.00 76 1022.0
20260906052236 60 206 0.9 3.5 0.00 0.06 0.00 76 1022.0
20260906051736 60 206 0.9 3.5 0.00 0.06 0.00 76 1022.0
20260906051236 60 206 0.9 3.5 0.00 0.06 0.00 75 1022.0
20260906050734 60 210 0.9 3.5 0.00 0.06 0.00 75 1022.0
20260906050233 60 208 0.9 3.5 0.00 0.06 0.00 75 1022.0
20260906045738 60 180 1.7 4.3 0.00 0.06 0.00 74 1021.8
20260906045732 60 180 0.9 4.3 0.00 0.06 0.00 75 1021.9
20260906044733 60 185 1.7 6.1 0.00 0.06 0.00 74 1021.7
20260906044234 60 185 0.9 6.1 0.00 0.06 0.00 74 1021.8
20260906043735 61 206 0.9 3.5 0.00 0.06 0.00 75 1021.8
20260906043234 60 206 0.9 3.5 0.00 0.06 0.00 75 1021.8
20260906042750 60 206 1.7 4.3 0.00 0.06 0.00 76 1021.8
20260906042233 60 208 2.6 4.3 0.00 0.06 0.00 74 1021.8
20260906041733 61 214 1.7 4.3 0.00 0.06 0.00 73 1021.8
20260906041233 61 235 0.9 3.5 0.00 0.06 0.00 74 1021.7
20260906040733 61 236 0.9 3.5 0.00 0.06 0.00 74 1021.6
20260906040231 61 242 1.7 3.5 0.00 0.06 0.00 73 1021.6
20260906035732 61 244 1.7 4.3 0.00 0.06 0.00 73 1021.5
20260906035230 61 249 0.9 4.3 0.00 0.06 0.00 74 1021.5
20260906034728 61 254 0.9 6.1 0.00 0.06 0.00 75 1021.5
20260906034228 60 256 0.9 6.1 0.00 0.06 0.00 75 1021.6
20260906033728 61 257 1.7 4.3 0.00 0.06 0.00 75 1021.6
20260906033229 61 259 1.7 6.1 0.00 0.06 0.00 74 1021.7
20260906032726 61 208 1.7 6.1 0.00 0.06 0.00 75 1021.7
20260906032226 61 202 1.7 6.1 0.00 0.06 0.00 76 1021.7
20260906031727 60 197 1.7 6.1 0.00 0.06 0.00 76 1021.7
20260906031224 60 209 1.7 4.3 0.00 0.06 0.00 78 1021.8
20260906030726 60 210 1.7 5.2 0.00 0.06 0.00 78 1021.8
20260906030226 60 224 1.7 5.2 0.00 0.06 0.00 78 1021.9
20260906025726 60 241 0.9 4.3 0.00 0.06 0.00 78 1021.8
20260906025228 61 206 1.7 7.8 0.00 0.06 0.00 77 1021.9
20260906025222 60 241 1.7 4.3 0.00 0.06 0.00 77 1021.8
20260906024222 61 208 1.7 7.8 0.00 0.06 0.00 77 1022.0
20260906023725 61 204 1.7 6.1 0.00 0.06 0.00 77 1022.0
20260906023228 61 235 0.9 4.3 0.00 0.06 0.00 77 1022.1
20260906023222 61 233 0.9 4.3 0.00 0.06 0.00 78 1022.1
20260906022848 60 233 1.7 5.2 0.00 0.06 0.00 76 1022.3
20260906022224 60 231 0.9 5.2 0.00 0.06 0.00 78 1022.2
20260906021224 60 234 1.7 6.1 0.00 0.06 0.00 77 1022.3
20260906020723 60 238 1.7 6.1 0.00 0.06 0.00 78 1022.3
20260906020222 60 238 1.7 4.3 0.00 0.06 0.00 79 1022.3
20260906015722 60 195 1.7 5.2 0.00 0.06 0.00 78 1022.3
20260906015223 60 209 1.7 6.1 0.00 0.06 0.00 78 1022.3
20260906014730 61 216 0.9 5.2 0.00 0.06 0.00 78 1022.4
20260906014724 61 242 1.7 6.1 0.00 0.06 0.00 78 1022.3
20260906013723 61 249 0.9 4.3 0.00 0.06 0.00 79 1022.3
20260906013222 61 229 0.9 5.2 0.00 0.06 0.00 79 1022.3
20260906012724 61 231 1.7 7.0 0.00 0.06 0.00 80 1022.4
20260906012225 60 254 1.7 7.0 0.00 0.06 0.00 79 1022.4
20260906011724 60 283 0.9 6.1 0.00 0.06 0.00 80 1022.3
20260906011220 60 285 1.7 6.1 0.00 0.06 0.00 80 1022.3
20260906010720 60 239 1.7 5.2 0.00 0.06 0.00 81 1022.3
20260906010220 60 262 1.7 6.1 0.00 0.06 0.00 81 1022.2
20260906005721 60 281 1.7 6.1 0.00 0.06 0.00 80 1022.3
20260906005220 60 251 1.7 6.1 0.00 0.06 0.00 80 1022.3
20260906004727 60 239 0.9 4.3 0.00 0.06 0.00 81 1022.3
20260906004720 60 267 0.9 5.2 0.00 0.06 0.00 79 1022.3
20260906003721 59 266 0.9 3.5 0.00 0.06 0.00 81 1022.2
20260906003223 59 270 0.9 3.5 0.00 0.06 0.00 82 1022.2
20260906002721 59 281 0.9 5.2 0.00 0.06 0.00 82 1022.1
20260906002220 59 275 0.9 5.2 0.00 0.06 0.00 82 1022.1
20260906001720 58 213 0.9 5.2 0.00 0.06 0.00 83 1022.1
20260906001220 58 266 1.7 5.2 0.00 0.06 0.00 83 1022.0
20260906000720 58 262 0.9 7.0 0.00 0.06 0.00 84 1021.9
20260906000226 58 253 0.9 7.0 0.00 0.06 0.00 84 1021.8
20260905235726 58 268 0.9 5.2 0.00 0.06 0.00 84 1021.8
20260905235720 58 255 0.9 5.2 0.00 0.06 0.00 84 1021.9
20260905234721 58 235 0.9 4.3 0.00 0.06 0.00 85 1021.8
20260905234217 57 281 0.0 3.5 0.00 0.06 0.00 85 1021.8
20260905233722 57 208 0.0 7.8 0.00 0.06 0.00 85 1021.6
20260905233717 57 222 0.0 7.8 0.00 0.06 0.00 85 1021.7
20260905232717 57 242 0.9 6.1 0.00 0.06 0.00 86 1021.6
20260905232222 57 250 0.0 4.3 0.00 0.06 0.00 86 1021.5
20260905232216 57 242 0.9 6.1 0.00 0.06 0.00 86 1021.6
20260905231215 56 235 0.9 5.2 0.00 0.06 0.00 86 1021.4
20260905230714 56 266 0.9 5.2 0.00 0.06 0.00 86 1021.3
20260905230221 56 262 0.9 11.3 0.00 0.06 0.00 86 1021.1
20260905230216 56 310 0.0 3.5 0.00 0.06 0.00 86 1021.3
20260905225840 56 239 0.9 11.3 0.00 0.06 0.00 87 1021.0
20260905224716 56 299 0.9 7.0 0.00 0.06 0.00 86 1021.0
20260905224214 56 258 0.0 6.1 0.00 0.06 0.00 86 1021.0
20260905223715 56 260 0.0 2.6 0.00 0.06 0.00 87 1020.9
20260905223219 56 257 0.9 4.3 0.00 0.06 0.00 87 1020.8
20260905223215 56 256 0.9 3.5 0.00 0.06 0.00 87 1020.8
20260905222215 56 264 0.9 4.3 0.00 0.06 0.00 87 1020.5
20260905221711 55 229 0.9 3.5 0.00 0.06 0.00 87 1020.4
20260905221212 55 260 0.0 3.5 0.00 0.06 0.00 87 1020.4
20260905220711 55 260 0.0 3.5 0.00 0.06 0.00 87 1020.4
20260905220211 55 156 0.0 2.6 0.00 0.06 0.00 87 1020.4
20260905215711 55 270 0.0 2.6 0.00 0.06 0.00 87 1020.3
20260905215212 55 272 0.0 2.6 0.00 0.06 0.00 87 1020.3
20260905214718 55 270 0.0 3.5 0.00 0.06 0.00 87 1020.2
20260905214713 55 272 0.0 3.5 0.00 0.06 0.00 87 1020.3